Location: ??????
(38.0131°N, 23.7723°E)
Time: 05:18:42
(UTC+00:00)

Radarsat Rocket - Pass Details

Date: 17 October 2021
Orbit: 933 x 1491 km, 100.6° (Epoch: 28 November)

Event Time Altitude Azimuth Distance (km) Brightness Sun altitude
Rises 15:58:07 0° 162° (SSE) 3,619 6.9 -3.5°
Reaches altitude 10° 16:00:26 10° 162° (SSE) 2,711 6.3 -3.9°
Maximum altitude 16:06:29 89° 73° (ENE) 1,045 4.2 -5.1°
Drops below altitude 10° 16:13:17 10° 345° (NNW) 3,032 6.7 -6.4°
Sets 16:16:01 0° 345° (NNW) 4,077 7.4 -7.0°
